Погода в Лойге

Россия / Архангельская область     61°04′38″N   44°36′28″E
темп.,
°C
ветер,
м/с
пор.,
м/с
влажн.,
%
обл.,
%
осадки,
мм/ч
давл.,
гПа
погр.,
м
26 февраля, пт
пт2600:00−20ююв279860 0.0 1015179
03:00−20ююв389733 0.0 1014240
06:00−20ююв4109674 0.0 1013285
09:00−19ююв499485 0.0 1010391
12:00−16юв4991100 0.0 1008414
15:00−14юв51091100 0.1 1006541
18:00−16юв41092100 0.0 1003516
21:00−16вюв4993100 0.1 1004495
27 февраля, сб
сб2700:00−17в3895100 0.0 1004393
03:00−18всв2797100 0.1 1006254
06:00−20всв2499100 0.0 1007102
09:00−19всв249587 0.0 1009220
12:00−15св238670 0.0 1010404
15:00−14св238985 0.0 1011473
18:00−18св129799 0.0 101220
21:00−20в119899 0.0 101420
28 февраля, вс
вс2800:00−20з009782 0.0 101420
03:00−19зюз009678 0.0 101420
06:00−19ююз119870 0.0 101420
09:00−16ююз119475 0.1 1014134
12:00−11юз118795 0.1 1014366
15:00−10зюз118697 0.1 1015444
18:00−14юз1196100 0.0 101620
21:00−15юз129793 0.1 101820
1 марта, пн
пн100:00−16юз229836 0.0 101820
03:00−15ююз239768 0.0 101852
06:00−15ююз239895 0.0 101787
09:00−10ююз379696 0.1 1016266
12:00−6ююз51092100 0.0 1013456
15:00−4ююз51192100 0.2 1009538
18:00−4юз51395100 1.1 1005674
21:00−2юз51196100 2.1 1001621
2 марта, вт
вт200:000з3998100 1.4 999501
03:000сз51097100 2.0 999836
06:00−2сз3109395 0.4 998529
09:00−3зсз4109362 0.4 999570
12:00−1сз368992 0.1 1000741
15:00−1зсз489296 0.2 1000736
18:00−2сз3109399 0.2 1002571
21:00−3ссз499199 0.2 1004785